| time (UTC) | temp F | wind direction | speed MPH | gust MPH | rain 1hr in | rain 24hr in | rain mn in | humidity % | barometer mb |
| 20260902045534 | 80 | 0.0 | 0.0 | 0.00 | 0.00 | 0.00 | 91 | 1017.8 | |
| 20260902044543 | 80 | 0.0 | 0.0 | 0.00 | 0.00 | 0.00 | 91 | 1017.8 | |
| 20260902043532 | 80 | 0.0 | 0.0 | 0.00 | 0.00 | 0.00 | 90 | 1017.7 | |
| 20260902042520 | 81 | 0.0 | 0.0 | 0.00 | 0.00 | 0.00 | 89 | 1017.7 | |
| 20260902041529 | 81 | 0.0 | 0.0 | 0.00 | 0.00 | 0.00 | 88 | 1017.8 | |
| 20260902040536 | 81 | 0.0 | 0.0 | 0.00 | 0.00 | 0.00 | 88 | 1017.9 | |
| 20260902035526 | 81 | 0.0 | 0.0 | 0.00 | 0.00 | 0.00 | 88 | 1018.1 | |
| 20260902034534 | 82 | 0.0 | 0.0 | 0.00 | 0.00 | 0.00 | 88 | 1018.2 | |
| 20260902033544 | 82 | 0.0 | 0.0 | 0.00 | 0.00 | 0.00 | 88 | 1018.2 | |
| 20260902032531 | 82 | 0.0 | 0.0 | 0.00 | 0.00 | 0.00 | 88 | 1018.3 | |
| 20260902031524 | 82 | 0.0 | 0.0 | 0.00 | 0.00 | 0.00 | 88 | 1018.4 | |
| 20260902030529 | 82 | 0.0 | 0.0 | 0.00 | 0.00 | 0.00 | 88 | 1018.5 | |
| 20260902025537 | 82 | 0.0 | 0.0 | 0.00 | 0.00 | 0.00 | 87 | 1018.4 | |
| 20260902024526 | 82 | 0.0 | 0.0 | 0.00 | 0.00 | 0.00 | 87 | 1018.4 | |
| 20260902023554 | 82 | 0.0 | 0.0 | 0.00 | 0.00 | 0.00 | 87 | 1018.3 | |
| 20260902022525 | 82 | 0.0 | 0.0 | 0.00 | 0.00 | 0.00 | 87 | 1018.2 | |
| 20260902021532 | 82 | 0.0 | 0.0 | 0.00 | 0.00 | 0.00 | 87 | 1018.0 | |
| 20260902020521 | 82 | 0.0 | 0.0 | 0.00 | 0.00 | 0.00 | 86 | 1017.9 | |
| 20260902015529 | 83 | 0.0 | 0.0 | 0.00 | 0.00 | 0.00 | 85 | 1017.8 | |
| 20260902014539 | 83 | 0.0 | 0.0 | 0.00 | 0.00 | 0.00 | 84 | 1017.6 | |
| 20260902013526 | 83 | 0.0 | 0.0 | 0.00 | 0.00 | 0.00 | 84 | 1017.5 | |
| 20260902012535 | 84 | 113 | 0.0 | 1.0 | 0.00 | 0.00 | 0.00 | 83 | 1017.4 |
| 20260902011525 | 84 | 150 | 1.0 | 2.0 | 0.00 | 0.00 | 0.00 | 82 | 1017.2 |
| 20260902010532 | 84 | 154 | 2.0 | 4.0 | 0.00 | 0.00 | 0.00 | 81 | 1017.2 |
| 20260902005542 | 84 | 139 | 1.0 | 3.0 | 0.00 | 0.00 | 0.00 | 81 | 1017.2 |
| 20260902004530 | 84 | 145 | 2.0 | 4.0 | 0.00 | 0.00 | 0.00 | 80 | 1017.1 |
| 20260902003519 | 84 | 169 | 2.0 | 4.0 | 0.00 | 0.00 | 0.00 | 79 | 1017.1 |
| 20260902002548 | 85 | 156 | 1.0 | 2.0 | 0.00 | 0.00 | 0.00 | 79 | 1016.9 |
| 20260902001535 | 85 | 135 | 1.0 | 4.0 | 0.00 | 0.00 | 0.00 | 79 | 1016.9 |
| 20260902000525 | 85 | 183 | 1.0 | 2.0 | 0.00 | 0.00 | 0.00 | 79 | 1016.9 |
| 20260901235532 | 85 | 137 | 2.0 | 3.0 | 0.00 | 0.00 | 0.00 | 79 | 1017.0 |
| 20260901234522 | 85 | 152 | 2.0 | 4.0 | 0.00 | 0.00 | 0.00 | 79 | 1017.0 |
| 20260901233530 | 86 | 135 | 1.0 | 4.0 | 0.00 | 0.00 | 0.00 | 78 | 1017.0 |
| 20260901232520 | 87 | 0.0 | 0.0 | 0.00 | 0.00 | 0.00 | 78 | 1017.0 | |
| 20260901231527 | 87 | 161 | 3.0 | 4.0 | 0.00 | 0.00 | 0.00 | 76 | 1017.0 |
| 20260901230535 | 87 | 149 | 4.0 | 5.0 | 0.00 | 0.00 | 0.00 | 76 | 1017.1 |
| 20260901225524 | 87 | 152 | 4.0 | 6.0 | 0.00 | 0.00 | 0.00 | 75 | 1017.1 |
| 20260901224553 | 88 | 122 | 3.0 | 6.0 | 0.00 | 0.00 | 0.00 | 74 | 1017.2 |
| 20260901223522 | 88 | 131 | 2.0 | 3.0 | 0.00 | 0.00 | 0.00 | 74 | 1017.1 |
| 20260901222530 | 88 | 126 | 1.0 | 3.0 | 0.00 | 0.00 | 0.00 | 74 | 1017.1 |
| 20260901221519 | 88 | 156 | 3.0 | 6.0 | 0.00 | 0.00 | 0.00 | 74 | 1017.0 |
| 20260901220527 | 88 | 144 | 3.0 | 4.0 | 0.00 | 0.00 | 0.00 | 73 | 1016.9 |
| 20260901215535 | 88 | 124 | 2.0 | 4.0 | 0.00 | 0.00 | 0.00 | 73 | 1017.1 |
| 20260901214524 | 88 | 0.0 | 0.0 | 0.00 | 0.00 | 0.00 | 73 | 1017.1 | |
| 20260901213718 | 88 | 0.0 | 0.0 | 0.00 | 0.00 | 0.00 | 74 | 1017.2 | |
| 20260901212522 | 88 | 0.0 | 0.0 | 0.00 | 0.00 | 0.00 | 75 | 1017.2 | |
| 20260901211530 | 87 | 0.0 | 0.0 | 0.00 | 0.00 | 0.00 | 76 | 1017.2 | |
| 20260901210521 | 86 | 0.0 | 0.0 | 0.00 | 0.00 | 0.00 | 79 | 1017.3 | |
| 20260901205527 | 86 | 0.0 | 0.0 | 0.00 | 0.00 | 0.00 | 80 | 1017.3 | |
| 20260901204535 | 86 | 0.0 | 0.0 | 0.00 | 0.00 | 0.00 | 80 | 1017.4 | |
| 20260901203525 | 85 | 0.0 | 0.0 | 0.00 | 0.00 | 0.00 | 82 | 1017.8 | |
| 20260901202533 | 84 | 0.0 | 0.0 | 0.00 | 0.00 | 0.00 | 84 | 1018.1 | |
| 20260901201603 | 84 | 153 | 2.0 | 3.0 | 0.00 | 0.00 | 0.00 | 84 | 1018.3 |
| 20260901200531 | 85 | 167 | 3.0 | 6.0 | 0.00 | 0.00 | 0.00 | 79 | 1018.5 |
| 20260901195520 | 85 | 186 | 5.0 | 7.0 | 0.00 | 0.00 | 0.00 | 78 | 1018.6 |
| 20260901194528 | 87 | 306 | 2.0 | 4.0 | 0.00 | 0.00 | 0.00 | 76 | 1018.6 |
| 20260901193536 | 88 | 208 | 3.0 | 5.0 | 0.00 | 0.00 | 0.00 | 76 | 1018.5 |
| 20260901192526 | 92 | 22 | 2.0 | 4.0 | 0.00 | 0.00 | 0.00 | 67 | 1018.4 |
| 20260901191533 | 93 | 9 | 2.0 | 6.0 | 0.00 | 0.00 | 0.00 | 63 | 1018.2 |
| 20260901190522 | 94 | 154 | 4.0 | 7.0 | 0.00 | 0.00 | 0.00 | 65 | 1018.3 |
| 20260901185531 | 93 | 151 | 4.0 | 7.0 | 0.00 | 0.00 | 0.00 | 66 | 1018.1 |
| 20260901184540 | 94 | 111 | 3.0 | 8.0 | 0.00 | 0.00 | 0.00 | 66 | 1018.1 |
| 20260901183528 | 94 | 144 | 4.0 | 6.0 | 0.00 | 0.00 | 0.00 | 65 | 1018.0 |
| 20260901182556 | 93 | 33 | 5.0 | 10.0 | 0.00 | 0.00 | 0.00 | 67 | 1018.1 |
| 20260901181605 | 94 | 112 | 6.0 | 8.0 | 0.00 | 0.00 | 0.00 | 66 | 1018.2 |
| 20260901180533 | 94 | 95 | 5.0 | 8.0 | 0.00 | 0.00 | 0.00 | 66 | 1018.3 |
| 20260901175542 | 94 | 299 | 3.0 | 5.0 | 0.00 | 0.00 | 0.00 | 66 | 1018.4 |
| 20260901174530 | 94 | 110 | 3.0 | 9.0 | 0.00 | 0.00 | 0.00 | 66 | 1018.5 |
| 20260901173520 | 93 | 214 | 4.0 | 7.0 | 0.00 | 0.00 | 0.00 | 67 | 1018.5 |
| 20260901172528 | 93 | 37 | 3.0 | 7.0 | 0.00 | 0.00 | 0.00 | 68 | 1018.5 |
| 20260901171536 | 92 | 34 | 3.0 | 7.0 | 0.00 | 0.00 | 0.00 | 69 | 1018.7 |
| 20260901170525 | 89 | 360 | 3.0 | 10.0 | 0.00 | 0.00 | 0.00 | 73 | 1018.7 |
| 20260901165533 | 89 | 110 | 3.0 | 5.0 | 0.00 | 0.00 | 0.00 | 74 | 1018.8 |
| 20260901164523 | 92 | 121 | 4.0 | 7.0 | 0.00 | 0.00 | 0.00 | 67 | 1018.9 |
| 20260901163531 | 94 | 162 | 4.0 | 9.0 | 0.00 | 0.00 | 0.00 | 61 | 1019.0 |
| 20260901162520 | 93 | 78 | 3.0 | 5.0 | 0.00 | 0.00 | 0.00 | 60 | 1019.1 |
| 20260901161528 | 93 | 131 | 4.0 | 6.0 | 0.00 | 0.00 | 0.00 | 63 | 1019.0 |
| 20260901160536 | 92 | 126 | 5.0 | 8.0 | 0.00 | 0.00 | 0.00 | 66 | 1018.9 |
| 20260901155525 | 93 | 103 | 4.0 | 6.0 | 0.00 | 0.00 | 0.00 | 65 | 1018.8 |
| 20260901154533 | 92 | 143 | 4.0 | 7.0 | 0.00 | 0.00 | 0.00 | 66 | 1018.7 |
| 20260901153522 | 91 | 134 | 4.0 | 6.0 | 0.00 | 0.00 | 0.00 | 69 | 1018.8 |
| 20260901152530 | 91 | 144 | 4.0 | 6.0 | 0.00 | 0.00 | 0.00 | 68 | 1018.7 |
| 20260901151520 | 91 | 144 | 5.0 | 7.0 | 0.00 | 0.00 | 0.00 | 68 | 1018.6 |
| 20260901150527 | 90 | 119 | 3.0 | 6.0 | 0.00 | 0.01 | 0.00 | 72 | 1018.7 |
| 20260901145535 | 90 | 123 | 3.0 | 5.0 | 0.00 | 0.01 | 0.00 | 73 | 1018.7 |
| 20260901144525 | 89 | 95 | 3.0 | 6.0 | 0.00 | 0.01 | 0.00 | 76 | 1018.6 |
| 20260901143533 | 88 | 146 | 4.0 | 6.0 | 0.00 | 0.01 | 0.00 | 78 | 1018.7 |
| 20260901142542 | 88 | 142 | 4.0 | 5.0 | 0.00 | 0.01 | 0.00 | 77 | 1018.8 |
| 20260901141550 | 88 | 143 | 3.0 | 6.0 | 0.00 | 0.01 | 0.00 | 77 | 1018.7 |
| 20260901140519 | 87 | 133 | 3.0 | 7.0 | 0.00 | 0.01 | 0.00 | 79 | 1018.8 |
| 20260901135528 | 86 | 156 | 3.0 | 6.0 | 0.00 | 0.01 | 0.00 | 81 | 1018.7 |
| 20260901134535 | 86 | 139 | 3.0 | 5.0 | 0.00 | 0.01 | 0.00 | 83 | 1018.7 |
| 20260901133524 | 85 | 157 | 2.0 | 7.0 | 0.00 | 0.01 | 0.00 | 87 | 1018.7 |
| 20260901132533 | 84 | 161 | 2.0 | 3.0 | 0.00 | 0.01 | 0.00 | 88 | 1018.7 |
| 20260901131542 | 83 | 110 | 1.0 | 3.0 | 0.00 | 0.01 | 0.00 | 91 | 1018.7 |
| 20260901130530 | 82 | 114 | 1.0 | 3.0 | 0.00 | 0.01 | 0.00 | 93 | 1018.6 |
| 20260901125700 | 81 | 49 | 1.0 | 3.0 | 0.00 | 0.01 | 0.00 | 95 | 1018.5 |
| 20260901124528 | 81 | 0.0 | 0.0 | 0.00 | 0.01 | 0.00 | 96 | 1018.4 | |
| 20260901123536 | 80 | 118 | 1.0 | 4.0 | 0.00 | 0.01 | 0.00 | 96 | 1018.3 |
| 20260901122526 | 79 | 0.0 | 0.0 | 0.00 | 0.02 | 0.00 | 97 | 1018.2 | |
| 20260901121533 | 79 | 0.0 | 0.0 | 0.00 | 0.02 | 0.00 | 97 | 1018.0 | |
| 20260901120522 | 79 | 0.0 | 0.0 | 0.00 | 0.02 | 0.00 | 97 | 1017.9 | |
| 20260901115531 | 79 | 0.0 | 0.0 | 0.00 | 0.02 | 0.00 | 97 | 1017.8 | |
| 20260901114520 | 79 | 0.0 | 0.0 | 0.00 | 0.02 | 0.00 | 97 | 1017.7 | |
| 20260901113528 | 79 | 0.0 | 0.0 | 0.00 | 0.02 | 0.00 | 97 | 1017.6 | |
| 20260901112536 | 79 | 0.0 | 0.0 | 0.00 | 0.02 | 0.00 | 96 | 1017.5 | |
| 20260901111526 | 79 | 0.0 | 0.0 | 0.00 | 0.02 | 0.00 | 96 | 1017.4 | |
| 20260901110534 | 79 | 0.0 | 0.0 | 0.00 | 0.02 | 0.00 | 96 | 1017.1 | |
| 20260901105543 | 79 | 0.0 | 0.0 | 0.00 | 0.02 | 0.00 | 96 | 1017.0 | |
| 20260901104531 | 79 | 0.0 | 0.0 | 0.00 | 0.02 | 0.00 | 96 | 1017.0 | |
| 20260901103541 | 79 | 0.0 | 0.0 | 0.00 | 0.02 | 0.00 | 96 | 1017.0 | |
| 20260901102529 | 79 | 0.0 | 0.0 | 0.00 | 0.02 | 0.00 | 96 | 1016.8 | |
| 20260901101537 | 79 | 0.0 | 0.0 | 0.00 | 0.02 | 0.00 | 95 | 1016.8 | |
| 20260901100526 | 80 | 0.0 | 0.0 | 0.00 | 0.02 | 0.00 | 95 | 1016.9 | |
| 20260901095534 | 80 | 0.0 | 0.0 | 0.00 | 0.02 | 0.00 | 95 | 1016.9 | |
| 20260901094524 | 80 | 0.0 | 0.0 | 0.00 | 0.02 | 0.00 | 95 | 1017.0 | |
| 20260901093551 | 80 | 0.0 | 0.0 | 0.00 | 0.02 | 0.00 | 95 | 1017.0 | |
| 20260901092521 | 80 | 144 | 0.0 | 2.0 | 0.00 | 0.02 | 0.00 | 95 | 1016.9 |
| 20260901091529 | 80 | 0.0 | 0.0 | 0.00 | 0.02 | 0.00 | 95 | 1017.0 | |
| 20260901090537 | 80 | 0.0 | 0.0 | 0.00 | 0.02 | 0.00 | 95 | 1017.0 | |
| 20260901085526 | 80 | 0.0 | 0.0 | 0.00 | 0.02 | 0.00 | 95 | 1017.0 | |
| 20260901084534 | 80 | 0.0 | 0.0 | 0.00 | 0.02 | 0.00 | 94 | 1017.0 | |
| 20260901083524 | 80 | 0.0 | 0.0 | 0.00 | 0.02 | 0.00 | 94 | 1016.9 | |
| 20260901082532 | 80 | 0.0 | 0.0 | 0.00 | 0.02 | 0.00 | 94 | 1016.9 | |
| 20260901081522 | 81 | 0.0 | 0.0 | 0.00 | 0.02 | 0.00 | 93 | 1016.9 | |
| 20260901080530 | 81 | 118 | 0.0 | 3.0 | 0.00 | 0.02 | 0.00 | 93 | 1016.9 |
| 20260901075519 | 81 | 135 | 0.0 | 3.0 | 0.00 | 0.02 | 0.00 | 93 | 1017.0 |
| 20260901074527 | 81 | 0.0 | 0.0 | 0.00 | 0.02 | 0.00 | 92 | 1017.1 | |
| 20260901073535 | 81 | 0.0 | 0.0 | 0.00 | 0.02 | 0.00 | 92 | 1017.2 | |
| 20260901072525 | 81 | 0.0 | 0.0 | 0.00 | 0.02 | 0.00 | 91 | 1017.3 | |
| 20260901071533 | 82 | 137 | 1.0 | 4.0 | 0.00 | 0.02 | 0.00 | 91 | 1017.3 |
| 20260901070750 | 0 | 158 | 3.0 | 3.0 | 0.00 | 0.02 | 0.00 | 1017.3 | |
| 20260901070542 | 82 | 143 | 2.0 | 4.0 | 0.00 | 0.02 | 0.00 | 91 | 1017.4 |
| 20260901065530 | 82 | 131 | 1.0 | 3.0 | 0.00 | 0.02 | 0.00 | 90 | 1017.4 |
| 20260901064520 | 82 | 148 | 2.0 | 5.0 | 0.00 | 0.02 | 0.00 | 90 | 1017.6 |
| 20260901063547 | 82 | 145 | 1.0 | 3.0 | 0.00 | 0.02 | 0.00 | 90 | 1017.6 |
| 20260901062535 | 82 | 90 | 0.0 | 2.0 | 0.00 | 0.02 | 0.00 | 90 | 1017.5 |
| 20260901061525 | 82 | 119 | 2.0 | 3.0 | 0.00 | 0.02 | 0.00 | 89 | 1017.5 |
| 20260901060533 | 82 | 110 | 2.0 | 4.0 | 0.00 | 0.02 | 0.00 | 89 | 1017.6 |
| 20260901055522 | 82 | 131 | 2.0 | 5.0 | 0.00 | 0.02 | 0.00 | 89 | 1017.5 |
| 20260901054531 | 82 | 0.0 | 0.0 | 0.00 | 0.02 | 0.00 | 89 | 1017.5 | |
| 20260901053602 | 82 | 113 | 2.0 | 4.0 | 0.00 | 0.02 | 0.00 | 89 | 1017.4 |
| 20260901052528 | 82 | 139 | 2.0 | 4.0 | 0.00 | 0.02 | 0.00 | 89 | 1017.5 |
| 20260901051536 | 82 | 158 | 3.0 | 6.0 | 0.00 | 0.02 | 0.00 | 89 | 1017.6 |
| 20260901050525 | 82 | 125 | 3.0 | 6.0 | 0.00 | 0.02 | 0.00 | 88 | 1017.8 |